DW6044 Weather Reports


Display with metric or nautical units.
time (UTC)temp
F
wind
direction
speed
MPH
gust
MPH
rain 1hr
in
rain 24hr
in
rain mn
in
humidity
%
barometer
mb
20260505124203 42 0 0.0 0.0 0.00 0.00 0.00 67 1015.9
20260505124003 42 0 0.0 0.0 0.00 0.00 0.00 67 1015.9
20260505123903 61 296 0.0 2.0 0.00 0.00 0.00 64 1013.1
20260505123804 42 0 0.0 0.0 0.00 0.00 0.00 67 1015.9
20260505123604 42 0 0.0 0.0 0.00 0.00 0.00 67 1015.9
20260505123403 61 222 0.0 0.0 0.00 0.00 0.00 65 1013.2
20260505123204 42 0 0.0 0.0 0.00 0.00 0.00 67 1015.9
20260505122902 60 222 0.0 0.0 0.00 0.00 0.00 66 1013.0
20260505122805 42 0 0.0 0.0 0.00 0.00 0.00 67 1015.9
20260505122603 42 0 0.0 0.0 0.00 0.00 0.00 67 1015.9
20260505122403 42 0 0.0 0.0 0.00 0.00 0.00 67 1015.9
20260505122004 42 0 0.0 0.0 0.00 0.00 0.00 67 1015.9
20260505121903 59 209 0.0 2.0 0.00 0.00 0.00 66 1013.1
20260505121603 42 0 0.0 0.0 0.00 0.00 0.00 67 1015.9
20260505121404 42 0 0.0 0.0 0.00 0.00 0.00 67 1015.9
20260505121204 42 0 0.0 0.0 0.00 0.00 0.00 67 1015.9
20260505121003 42 0 0.0 0.0 0.00 0.00 0.00 67 1015.9
20260505120804 42 0 0.0 0.0 0.00 0.00 0.00 67 1015.9
20260505120403 58 204 0.0 1.0 0.00 0.00 0.00 68 1012.9
20260505120003 42 0 0.0 0.0 0.00 0.00 0.00 67 1015.9
20260505115903 58 202 0.0 2.0 0.00 0.00 0.00 70 1012.9
20260505115803 42 0 0.0 0.0 0.00 0.00 0.00 67 1015.9
20260505115603 42 0 0.0 0.0 0.00 0.00 0.00 67 1015.9
20260505115403 58 322 0.0 0.0 0.00 0.00 0.00 70 1012.9
20260505115204 42 0 0.0 0.0 0.00 0.00 0.00 67 1015.9
20260505114903 57 323 0.0 2.0 0.00 0.00 0.00 70 1012.8
20260505114803 42 0 0.0 0.0 0.00 0.00 0.00 67 1015.9
20260505114605 42 0 0.0 0.0 0.00 0.00 0.00 67 1015.9
20260505114403 57 259 0.0 0.0 0.00 0.00 0.00 70 1012.8
20260505114203 42 0 0.0 0.0 0.00 0.00 0.00 67 1015.9
20260505114004 42 0 0.0 0.0 0.00 0.00 0.00 67 1015.9
20260505113903 57 259 0.0 0.0 0.00 0.00 0.00 71 1012.8
20260505113803 42 0 0.0 0.0 0.00 0.00 0.00 67 1015.9
20260505113604 42 0 0.0 0.0 0.00 0.00 0.00 67 1015.9
20260505113403 42 0 0.0 0.0 0.00 0.00 0.00 67 1015.9
20260505113203 42 0 0.0 0.0 0.00 0.00 0.00 67 1015.9
20260505113003 42 0 0.0 0.0 0.00 0.00 0.00 67 1015.9
20260505112603 42 0 0.0 0.0 0.00 0.00 0.00 67 1015.9
20260505112404 42 0 0.0 0.0 0.00 0.00 0.00 67 1015.9
20260505112203 42 0 0.0 0.0 0.00 0.00 0.00 67 1015.9
20260505112004 42 0 0.0 0.0 0.00 0.00 0.00 67 1015.9
20260505111604 42 0 0.0 0.0 0.00 0.00 0.00 67 1015.9
20260505111403 54 261 0.0 0.0 0.00 0.00 0.00 78 1012.6
20260505111204 42 0 0.0 0.0 0.00 0.00 0.00 67 1015.9
20260505111003 42 0 0.0 0.0 0.00 0.00 0.00 67 1015.9
20260505110903 54 261 0.0 0.0 0.00 0.00 0.00 81 1012.5
20260505110804 42 0 0.0 0.0 0.00 0.00 0.00 67 1015.9
20260505110603 42 0 0.0 0.0 0.00 0.00 0.00 67 1015.9
20260505110403 53 260 0.0 0.0 0.00 0.00 0.00 81 1012.4
20260505110205 42 0 0.0 0.0 0.00 0.00 0.00 67 1015.9
20260505101803 42 0 0.0 0.0 0.00 0.00 0.00 67 1015.9
20260505101603 42 0 0.0 0.0 0.00 0.00 0.00 67 1015.9
20260505101403 54 162 0.0 0.0 0.00 0.00 0.00 75 1011.8
20260505101203 42 0 0.0 0.0 0.00 0.00 0.00 67 1015.9
20260505101003 42 0 0.0 0.0 0.00 0.00 0.00 67 1015.9
20260505100903 54 162 0.0 0.0 0.00 0.00 0.00 76 1011.8
20260505100803 42 0 0.0 0.0 0.00 0.00 0.00 67 1015.9
20260505100603 42 0 0.0 0.0 0.00 0.00 0.00 67 1015.9
20260505100403 42 0 0.0 0.0 0.00 0.00 0.00 67 1015.9
20260505100203 42 0 0.0 0.0 0.00 0.00 0.00 67 1015.9
20260505095903 54 189 0.0 0.0 0.00 0.00 0.00 74 1011.7
20260505095804 42 0 0.0 0.0 0.00 0.00 0.00 67 1015.9
20260505095603 42 0 0.0 0.0 0.00 0.00 0.00 67 1015.9
20260505095204 42 0 0.0 0.0 0.00 0.00 0.00 67 1015.9
20260505095003 42 0 0.0 0.0 0.00 0.00 0.00 67 1015.9
20260505094903 53 195 0.0 0.0 0.00 0.00 0.00 75 1011.7
20260505094804 42 0 0.0 0.0 0.00 0.00 0.00 67 1015.9
20260505094603 42 0 0.0 0.0 0.00 0.00 0.00 67 1015.9
20260505094404 42 0 0.0 0.0 0.00 0.00 0.00 67 1015.9
20260505094203 42 0 0.0 0.0 0.00 0.00 0.00 67 1015.9
20260505094004 42 0 0.0 0.0 0.00 0.00 0.00 67 1015.9
20260505093804 42 0 0.0 0.0 0.00 0.00 0.00 67 1015.9
20260505093403 53 117 0.0 0.0 0.00 0.00 0.00 76 1011.7
20260505093205 42 0 0.0 0.0 0.00 0.00 0.00 67 1015.9
20260505093003 42 0 0.0 0.0 0.00 0.00 0.00 67 1015.9
20260505092903 53 117 0.0 0.0 0.00 0.00 0.00 77 1011.7
20260505092803 42 0 0.0 0.0 0.00 0.00 0.00 67 1015.9
20260505092405 42 0 0.0 0.0 0.00 0.00 0.00 67 1015.9
20260505092203 42 0 0.0 0.0 0.00 0.00 0.00 67 1015.9
20260505092004 42 0 0.0 0.0 0.00 0.00 0.00 67 1015.9
20260505091903 53 117 0.0 0.0 0.00 0.00 0.00 76 1011.6
20260505091604 42 0 0.0 0.0 0.00 0.00 0.00 67 1015.9
20260505091403 42 0 0.0 0.0 0.00 0.00 0.00 67 1015.9
20260505090903 53 117 0.0 0.0 0.00 0.00 0.00 77 1011.6
20260505090403 53 117 0.0 0.0 0.00 0.00 0.00 78 1011.6
20260505090204 42 0 0.0 0.0 0.00 0.00 0.00 67 1015.9
20260505090003 42 0 0.0 0.0 0.00 0.00 0.00 67 1015.9
20260505085903 53 117 0.0 0.0 0.00 0.00 0.00 77 1011.6
20260505085404 42 0 0.0 0.0 0.00 0.00 0.00 67 1015.9
20260505085203 42 0 0.0 0.0 0.00 0.00 0.00 67 1015.9
20260505084903 53 117 0.0 0.0 0.00 0.00 0.00 77 1011.7
20260505084603 42 0 0.0 0.0 0.00 0.00 0.00 67 1015.9
20260505084403 42 0 0.0 0.0 0.00 0.00 0.00 67 1015.9
20260505084203 42 0 0.0 0.0 0.00 0.00 0.00 67 1015.9
20260505084003 42 0 0.0 0.0 0.00 0.00 0.00 67 1015.9
20260505083803 42 0 0.0 0.0 0.00 0.00 0.00 67 1015.9
20260505083603 42 0 0.0 0.0 0.00 0.00 0.00 67 1015.9
20260505083403 42 0 0.0 0.0 0.00 0.00 0.00 67 1015.9
20260505083003 42 0 0.0 0.0 0.00 0.00 0.00 67 1015.9
20260505082904 52 117 0.0 0.0 0.00 0.00 0.00 79 1011.6
20260505082805 42 0 0.0 0.0 0.00 0.00 0.00 67 1015.9
20260505082603 42 0 0.0 0.0 0.00 0.00 0.00 67 1015.9
20260505082403 42 0 0.0 0.0 0.00 0.00 0.00 67 1015.9
20260505082203 42 0 0.0 0.0 0.00 0.00 0.00 67 1015.9
20260505082004 42 0 0.0 0.0 0.00 0.00 0.00 67 1015.9
20260505081904 52 117 0.0 0.0 0.00 0.00 0.00 80 1011.6
20260505081803 42 0 0.0 0.0 0.00 0.00 0.00 67 1015.9
20260505081604 42 0 0.0 0.0 0.00 0.00 0.00 67 1015.9
20260505081403 42 0 0.0 0.0 0.00 0.00 0.00 67 1015.9
20260505081203 42 0 0.0 0.0 0.00 0.00 0.00 67 1015.9
20260505081003 42 0 0.0 0.0 0.00 0.00 0.00 67 1015.9
20260505080904 52 117 0.0 0.0 0.00 0.00 0.00 78 1011.7
20260505080805 42 0 0.0 0.0 0.00 0.00 0.00 67 1015.9
20260505080604 42 0 0.0 0.0 0.00 0.00 0.00 67 1015.9
20260505080404 42 0 0.0 0.0 0.00 0.00 0.00 67 1015.9
20260505080203 42 0 0.0 0.0 0.00 0.00 0.00 67 1015.9
20260505080005 42 0 0.0 0.0 0.00 0.00 0.00 67 1015.9
20260505075803 42 0 0.0 0.0 0.00 0.00 0.00 67 1015.9
20260505075603 42 0 0.0 0.0 0.00 0.00 0.00 67 1015.9
20260505075203 42 0 0.0 0.0 0.00 0.00 0.00 67 1015.9
20260505075003 42 0 0.0 0.0 0.00 0.00 0.00 67 1015.9
20260505074603 42 0 0.0 0.0 0.00 0.00 0.00 67 1015.9
20260505074404 42 0 0.0 0.0 0.00 0.00 0.00 67 1015.9
20260505074203 42 0 0.0 0.0 0.00 0.00 0.00 67 1015.9
20260505074005 42 0 0.0 0.0 0.00 0.00 0.00 67 1015.9
20260505073903 53 117 0.0 0.0 0.00 0.00 0.00 78 1011.7
20260505073803 42 0 0.0 0.0 0.00 0.00 0.00 67 1015.9
20260505073603 42 0 0.0 0.0 0.00 0.00 0.00 67 1015.9
20260505073403 53 117 0.0 0.0 0.00 0.00 0.00 78 1011.6
20260505073203 42 0 0.0 0.0 0.00 0.00 0.00 67 1015.9
20260505073003 42 0 0.0 0.0 0.00 0.00 0.00 67 1015.9
20260505072903 53 117 0.0 0.0 0.00 0.00 0.00 78 1011.5
20260505072604 42 0 0.0 0.0 0.00 0.00 0.00 67 1015.9
20260505072403 53 117 0.0 0.0 0.00 0.00 0.00 78 1011.7
20260505072005 42 0 0.0 0.0 0.00 0.00 0.00 67 1015.9
20260505071803 42 0 0.0 0.0 0.00 0.00 0.00 67 1015.9
20260505071604 42 0 0.0 0.0 0.00 0.00 0.00 67 1015.9
20260505071404 42 0 0.0 0.0 0.00 0.00 0.00 67 1015.9
20260505071203 42 0 0.0 0.0 0.00 0.00 0.00 67 1015.9
20260505071003 42 0 0.0 0.0 0.00 0.00 0.00 67 1015.9
20260505070903 54 117 0.0 0.0 0.00 0.00 0.00 77 1011.5
20260505070603 42 0 0.0 0.0 0.00 0.00 0.00 67 1015.9
20260505070404 42 0 0.0 0.0 0.00 0.00 0.00 67 1015.9
20260505070203 42 0 0.0 0.0 0.00 0.00 0.00 67 1015.9
20260505070004 42 0 0.0 0.0 0.00 0.00 0.00 67 1015.9
20260505065903 55 117 0.0 0.0 0.00 0.00 0.00 74 1011.4
20260505065803 42 0 0.0 0.0 0.00 0.00 0.00 67 1015.9
20260505065603 42 0 0.0 0.0 0.00 0.00 0.00 67 1015.9
20260505065404 42 0 0.0 0.0 0.00 0.00 0.00 67 1015.9
20260505065004 42 0 0.0 0.0 0.00 0.00 0.00 67 1015.9
20260505064903 55 117 0.0 0.0 0.00 0.00 0.00 75 1011.3
20260505064804 42 0 0.0 0.0 0.00 0.00 0.00 67 1015.9
20260505064603 42 0 0.0 0.0 0.00 0.00 0.00 67 1015.9
20260505064404 42 0 0.0 0.0 0.00 0.00 0.00 67 1015.9
20260505064205 42 0 0.0 0.0 0.00 0.00 0.00 67 1015.9
20260505064003 42 0 0.0 0.0 0.00 0.00 0.00 67 1015.9
20260505063904 55 117 0.0 0.0 0.00 0.00 0.00 76 1011.4
20260505063804 42 0 0.0 0.0 0.00 0.00 0.00 67 1015.9
20260505063603 42 0 0.0 0.0 0.00 0.00 0.00 67 1015.9
20260505063404 42 0 0.0 0.0 0.00 0.00 0.00 67 1015.9
20260505063204 42 0 0.0 0.0 0.00 0.00 0.00 67 1015.9
20260505063004 42 0 0.0 0.0 0.00 0.00 0.00 67 1015.9
20260505062903 55 117 0.0 0.0 0.00 0.00 0.00 77 1011.5
20260505062803 42 0 0.0 0.0 0.00 0.00 0.00 67 1015.9
20260505062604 42 0 0.0 0.0 0.00 0.00 0.00 67 1015.9
20260505062403 42 0 0.0 0.0 0.00 0.00 0.00 67 1015.9
20260505062003 42 0 0.0 0.0 0.00 0.00 0.00 67 1015.9
20260505061905 55 117 0.0 0.0 0.00 0.00 0.00 76 1011.5
20260505061804 42 0 0.0 0.0 0.00 0.00 0.00 67 1015.9
20260505061604 42 0 0.0 0.0 0.00 0.00 0.00 67 1015.9
20260505061403 42 0 0.0 0.0 0.00 0.00 0.00 67 1015.9
20260505061203 42 0 0.0 0.0 0.00 0.00 0.00 67 1015.9
20260505060803 42 0 0.0 0.0 0.00 0.00 0.00 67 1015.9
20260505060603 42 0 0.0 0.0 0.00 0.00 0.00 67 1015.9
20260505060405 42 0 0.0 0.0 0.00 0.00 0.00 67 1015.9
20260505060203 42 0 0.0 0.0 0.00 0.00 0.00 67 1015.9
20260505060005 42 0 0.0 0.0 0.00 0.00 0.00 67 1015.9
20260505055903 56 117 0.0 0.0 0.00 0.00 0.00 71 1011.6
20260505055803 42 0 0.0 0.0 0.00 0.00 0.00 67 1015.9
20260505055604 42 0 0.0 0.0 0.00 0.00 0.00 67 1015.9
20260505055403 42 0 0.0 0.0 0.00 0.00 0.00 67 1015.9
20260505055204 42 0 0.0 0.0 0.00 0.00 0.00 67 1015.9
20260505054804 42 0 0.0 0.0 0.00 0.00 0.00 67 1015.9
20260505054405 42 0 0.0 0.0 0.00 0.00 0.00 67 1015.9
20260505053903 56 117 0.0 0.0 0.00 0.00 0.00 70 1011.7
20260505053804 42 0 0.0 0.0 0.00 0.00 0.00 67 1015.9
20260505053603 42 0 0.0 0.0 0.00 0.00 0.00 67 1015.9
20260505053403 42 0 0.0 0.0 0.00 0.00 0.00 67 1015.9
20260505053204 42 0 0.0 0.0 0.00 0.00 0.00 67 1015.9
20260505053003 42 0 0.0 0.0 0.00 0.00 0.00 67 1015.9
20260505052903 56 117 0.0 0.0 0.00 0.00 0.00 72 1011.8
20260505052804 42 0 0.0 0.0 0.00 0.00 0.00 67 1015.9
20260505052404 42 0 0.0 0.0 0.00 0.00 0.00 67 1015.9
20260505052203 42 0 0.0 0.0 0.00 0.00 0.00 67 1015.9
20260505052004 42 0 0.0 0.0 0.00 0.00 0.00 67 1015.9
20260505051803 42 0 0.0 0.0 0.00 0.00 0.00 67 1015.9
20260505051604 42 0 0.0 0.0 0.00 0.00 0.00 67 1015.9
20260505051403 56 117 0.0 0.0 0.00 0.00 0.00 73 1011.8
20260505051204 42 0 0.0 0.0 0.00 0.00 0.00 67 1015.9
20260505051003 42 0 0.0 0.0 0.00 0.00 0.00 67 1015.9
20260505050903 56 117 0.0 0.0 0.00 0.00 0.00 71 1011.8
20260505050804 42 0 0.0 0.0 0.00 0.00 0.00 67 1015.9
20260505050405 42 0 0.0 0.0 0.00 0.00 0.00 67 1015.9
20260505050203 42 0 0.0 0.0 0.00 0.00 0.00 67 1015.9
20260505041404 42 0 0.0 0.0 0.00 0.00 0.00 67 1015.9
20260505041204 42 0 0.0 0.0 0.00 0.00 0.00 67 1015.9
20260505040905 55 117 0.0 0.0 0.00 0.00 0.00 73 1011.4
20260505040603 42 0 0.0 0.0 0.00 0.00 0.00 67 1015.9
20260505040403 42 0 0.0 0.0 0.00 0.00 0.00 67 1015.9
20260505040204 42 0 0.0 0.0 0.00 0.00 0.00 67 1015.9
20260505040005 42 0 0.0 0.0 0.00 0.00 0.00 67 1015.9
20260505035903 55 117 0.0 0.0 0.00 0.00 0.00 74 1011.3
20260505035803 42 0 0.0 0.0 0.00 0.00 0.00 67 1015.9
20260505035604 42 0 0.0 0.0 0.00 0.00 0.00 67 1015.9
20260505035403 42 0 0.0 0.0 0.00 0.00 0.00 67 1015.9
20260505035204 42 0 0.0 0.0 0.00 0.00 0.00 67 1015.9
20260505035003 42 0 0.0 0.0 0.00 0.00 0.00 67 1015.9
20260505034903 55 117 0.0 0.0 0.00 0.00 0.00 72 1011.4
20260505034603 42 0 0.0 0.0 0.00 0.00 0.00 67 1015.9
20260505034404 42 0 0.0 0.0 0.00 0.00 0.00 67 1015.9
20260505034203 42 0 0.0 0.0 0.00 0.00 0.00 67 1015.9
20260505034004 42 0 0.0 0.0 0.00 0.00 0.00 67 1015.9
20260505033903 55 117 0.0 0.0 0.00 0.00 0.00 73 1011.3
20260505033803 42 0 0.0 0.0 0.00 0.00 0.00 67 1015.9
20260505033604 42 0 0.0 0.0 0.00 0.00 0.00 67 1015.9
20260505033204 42 0 0.0 0.0 0.00 0.00 0.00 67 1015.9
20260505033003 42 0 0.0 0.0 0.00 0.00 0.00 67 1015.9
20260505032905 55 117 0.0 0.0 0.00 0.00 0.00 72 1011.3
20260505032804 42 0 0.0 0.0 0.00 0.00 0.00 67 1015.9
20260505032603 42 0 0.0 0.0 0.00 0.00 0.00 67 1015.9
20260505032404 42 0 0.0 0.0 0.00 0.00 0.00 67 1015.9
20260505032203 42 0 0.0 0.0 0.00 0.00 0.00 67 1015.9
20260505032004 42 0 0.0 0.0 0.00 0.00 0.00 67 1015.9
20260505031903 55 117 0.0 0.0 0.00 0.00 0.00 71 1011.4
20260505031604 42 0 0.0 0.0 0.00 0.00 0.00 67 1015.9
20260505031404 42 0 0.0 0.0 0.00 0.00 0.00 67 1015.9
20260505031203 42 0 0.0 0.0 0.00 0.00 0.00 67 1015.9
20260505030904 56 117 0.0 0.0 0.00 0.00 0.00 71 1011.5
20260505030803 42 0 0.0 0.0 0.00 0.00 0.00 67 1015.9
20260505030604 42 0 0.0 0.0 0.00 0.00 0.00 67 1015.9
20260505030403 56 117 0.0 0.0 0.00 0.00 0.00 70 1011.5
20260505030204 42 0 0.0 0.0 0.00 0.00 0.00 67 1015.9
20260505030003 42 0 0.0 0.0 0.00 0.00 0.00 67 1015.9
20260505025903 56 117 0.0 0.0 0.00 0.00 0.00 70 1011.5
20260505025803 42 0 0.0 0.0 0.00 0.00 0.00 67 1015.9
20260505025603 42 0 0.0 0.0 0.00 0.00 0.00 67 1015.9
20260505025404 42 0 0.0 0.0 0.00 0.00 0.00 67 1015.9
20260505025004 42 0 0.0 0.0 0.00 0.00 0.00 67 1015.9
20260505024903 56 117 0.0 0.0 0.00 0.00 0.00 71 1011.4
20260505024803 42 0 0.0 0.0 0.00 0.00 0.00 67 1015.9
20260505024605 42 0 0.0 0.0 0.00 0.00 0.00 67 1015.9
20260505024403 56 117 0.0 0.0 0.00 0.00 0.00 71 1011.4
20260505024203 42 0 0.0 0.0 0.00 0.00 0.00 67 1015.9
20260505023904 56 117 0.0 0.0 0.00 0.00 0.00 71 1011.4
20260505023803 42 0 0.0 0.0 0.00 0.00 0.00 67 1015.9
20260505023604 42 0 0.0 0.0 0.00 0.00 0.00 67 1015.9
20260505023403 56 117 0.0 0.0 0.00 0.00 0.00 70 1011.4
20260505023205 42 0 0.0 0.0 0.00 0.00 0.00 67 1015.9
20260505023003 42 0 0.0 0.0 0.00 0.00 0.00 67 1015.9
20260505022904 56 117 0.0 0.0 0.00 0.00 0.00 70 1011.4
20260505022804 42 0 0.0 0.0 0.00 0.00 0.00 67 1015.9
20260505022604 42 0 0.0 0.0 0.00 0.00 0.00 67 1015.9
20260505022404 42 0 0.0 0.0 0.00 0.00 0.00 67 1015.9
20260505022204 42 0 0.0 0.0 0.00 0.00 0.00 67 1015.9
20260505022004 42 0 0.0 0.0 0.00 0.00 0.00 67 1015.9
20260505021904 56 117 0.0 0.0 0.00 0.00 0.00 68 1011.4
20260505021804 42 0 0.0 0.0 0.00 0.00 0.00 67 1015.9
20260505021603 42 0 0.0 0.0 0.00 0.00 0.00 67 1015.9
20260505021404 56 117 0.0 0.0 0.00 0.00 0.00 68 1011.5
20260505021004 42 0 0.0 0.0 0.00 0.00 0.00 67 1015.9
20260505020904 56 117 0.0 0.0 0.00 0.00 0.00 68 1011.5
20260505020803 42 0 0.0 0.0 0.00 0.00 0.00 67 1015.9
20260505020604 42 0 0.0 0.0 0.00 0.00 0.00 67 1015.9
20260505015903 56 117 0.0 0.0 0.00 0.00 0.00 67 1011.6
20260505015804 42 0 0.0 0.0 0.00 0.00 0.00 67 1015.9
20260505015603 42 0 0.0 0.0 0.00 0.00 0.00 67 1015.9
20260505015203 42 0 0.0 0.0 0.00 0.00 0.00 67 1015.9
20260505015005 42 0 0.0 0.0 0.00 0.00 0.00 67 1015.9
20260505014903 56 117 0.0 0.0 0.00 0.00 0.00 67 1011.5
20260505014803 42 0 0.0 0.0 0.00 0.00 0.00 67 1015.9
20260505014604 42 0 0.0 0.0 0.00 0.00 0.00 67 1015.9
20260505014403 57 117 0.0 0.0 0.00 0.00 0.00 67 1011.5
20260505014204 42 0 0.0 0.0 0.00 0.00 0.00 67 1015.9
20260505014004 42 0 0.0 0.0 0.00 0.00 0.00 67 1015.9
20260505013904 57 117 0.0 0.0 0.00 0.00 0.00 66 1011.4
20260505013804 42 0 0.0 0.0 0.00 0.00 0.00 67 1015.9
20260505013604 42 0 0.0 0.0 0.00 0.00 0.00 67 1015.9
20260505013404 42 0 0.0 0.0 0.00 0.00 0.00 67 1015.9
20260505013204 42 0 0.0 0.0 0.00 0.00 0.00 67 1015.9
20260505013004 42 0 0.0 0.0 0.00 0.00 0.00 67 1015.9
20260505012603 42 0 0.0 0.0 0.00 0.00 0.00 67 1015.9
20260505012405 42 0 0.0 0.0 0.00 0.00 0.00 67 1015.9
20260505012203 42 0 0.0 0.0 0.00 0.00 0.00 67 1015.9
20260505012004 42 0 0.0 0.0 0.00 0.00 0.00 67 1015.9
20260505011904 57 117 0.0 0.0 0.00 0.00 0.00 65 1011.2
20260505011404 42 0 0.0 0.0 0.00 0.00 0.00 67 1015.9
20260505011004 42 0 0.0 0.0 0.00 0.00 0.00 67 1015.9
20260505010903 58 118 0.0 0.0 0.00 0.00 0.00 63 1011.0
20260505010805 42 0 0.0 0.0 0.00 0.00 0.00 67 1015.9
20260505010603 42 0 0.0 0.0 0.00 0.00 0.00 67 1015.9
20260505010403 42 0 0.0 0.0 0.00 0.00 0.00 67 1015.9
20260505010204 42 0 0.0 0.0 0.00 0.00 0.00 67 1015.9
20260505010003 42 0 0.0 0.0 0.00 0.00 0.00 67 1015.9
20260505005903 58 118 0.0 0.0 0.00 0.00 0.00 62 1010.9
20260505005804 42 0 0.0 0.0 0.00 0.00 0.00 67 1015.9
20260505005204 42 0 0.0 0.0 0.00 0.00 0.00 67 1015.9
20260505005004 42 0 0.0 0.0 0.00 0.00 0.00 67 1015.9
20260505004904 59 97 0.0 0.0 0.00 0.00 0.00 61 1010.9
20260505004804 42 0 0.0 0.0 0.00 0.00 0.00 67 1015.9
20260505004404 42 0 0.0 0.0 0.00 0.00 0.00 67 1015.9
20260505004204 42 0 0.0 0.0 0.00 0.00 0.00 67 1015.9
20260505004004 42 0 0.0 0.0 0.00 0.00 0.00 67 1015.9
20260505003905 60 117 0.0 0.0 0.00 0.00 0.00 60 1010.9
20260505003803 42 0 0.0 0.0 0.00 0.00 0.00 67 1015.9
20260505003604 42 0 0.0 0.0 0.00 0.00 0.00 67 1015.9
20260505003403 60 117 0.0 1.0 0.00 0.00 0.00 59 1011.0
20260505003204 42 0 0.0 0.0 0.00 0.00 0.00 67 1015.9
20260505003004 42 0 0.0 0.0 0.00 0.00 0.00 67 1015.9
20260505002903 60 115 0.0 0.0 0.00 0.00 0.00 59 1011.0
20260505002403 42 0 0.0 0.0 0.00 0.00 0.00 67 1015.9
20260505002204 42 0 0.0 0.0 0.00 0.00 0.00 67 1015.9
20260505002003 42 0 0.0 0.0 0.00 0.00 0.00 67 1015.9
20260505001903 61 115 0.0 0.0 0.00 0.00 0.00 57 1010.9
20260505001804 42 0 0.0 0.0 0.00 0.00 0.00 67 1015.9
20260505001404 42 0 0.0 0.0 0.00 0.00 0.00 67 1015.9
20260505001205 42 0 0.0 0.0 0.00 0.00 0.00 67 1015.9
20260505001004 42 0 0.0 0.0 0.00 0.00 0.00 67 1015.9
20260505000904 61 213 0.0 3.0 0.00 0.00 0.00 58 1010.9
20260505000804 42 0 0.0 0.0 0.00 0.00 0.00 67 1015.9
20260505000604 42 0 0.0 0.0 0.00 0.00 0.00 67 1015.9
20260505000405 42 0 0.0 0.0 0.00 0.00 0.00 67 1015.9
20260505000204 42 0 0.0 0.0 0.00 0.00 0.00 67 1015.9
20260505000003 42 0 0.0 0.0 0.00 0.00 0.00 67 1015.9
20260504235903 62 165 0.0 0.0 0.00 0.00 0.00 55 1010.9
20260504235603 42 0 0.0 0.0 0.00 0.00 0.00 67 1015.9
20260504235404 42 0 0.0 0.0 0.00 0.00 0.00 67 1015.9
20260504235203 42 0 0.0 0.0 0.00 0.00 0.00 67 1015.9
20260504235004 42 0 0.0 0.0 0.00 0.00 0.00 67 1015.9
20260504234905 63 107 0.0 0.0 0.00 0.00 0.00 56 1010.8
20260504234803 42 0 0.0 0.0 0.00 0.00 0.00 67 1015.9
20260504234604 42 0 0.0 0.0 0.00 0.00 0.00 67 1015.9
20260504234403 63 126 0.0 1.0 0.00 0.00 0.00 54 1010.9
20260504234204 42 0 0.0 0.0 0.00 0.00 0.00 67 1015.9
20260504234003 42 0 0.0 0.0 0.00 0.00 0.00 67 1015.9
20260504233903 64 126 0.0 3.0 0.00 0.00 0.00 53 1010.8
20260504233804 42 0 0.0 0.0 0.00 0.00 0.00 67 1015.9
20260504233604 42 0 0.0 0.0 0.00 0.00 0.00 67 1015.9
20260504233204 42 0 0.0 0.0 0.00 0.00 0.00 67 1015.9
20260504233004 42 0 0.0 0.0 0.00 0.00 0.00 67 1015.9
20260504232904 64 126 0.0 3.0 0.00 0.00 0.00 52 1010.8
20260504232604 42 0 0.0 0.0 0.00 0.00 0.00 67 1015.9
20260504232403 42 0 0.0 0.0 0.00 0.00 0.00 67 1015.9
20260504232204 42 0 0.0 0.0 0.00 0.00 0.00 67 1015.9
20260504232003 42 0 0.0 0.0 0.00 0.00 0.00 67 1015.9
20260504231804 42 0 0.0 0.0 0.00 0.00 0.00 67 1015.9
20260504231404 42 0 0.0 0.0 0.00 0.00 0.00 67 1015.9
20260504231203 42 0 0.0 0.0 0.00 0.00 0.00 67 1015.9
20260504231004 42 0 0.0 0.0 0.00 0.00 0.00 67 1015.9
20260504230903 65 152 0.0 3.0 0.00 0.00 0.00 51 1010.9
20260504230804 42 0 0.0 0.0 0.00 0.00 0.00 67 1015.9
20260504230404 65 145 0.0 2.0 0.00 0.00 0.00 48 1010.9
20260504230204 42 0 0.0 0.0 0.00 0.00 0.00 67 1015.9
20260504230003 42 0 0.0 0.0 0.00 0.00 0.00 67 1015.9
20260504225904 66 140 0.0 2.0 0.00 0.00 0.00 46 1010.9
20260504225805 42 0 0.0 0.0 0.00 0.00 0.00 67 1015.9
20260504225603 42 0 0.0 0.0 0.00 0.00 0.00 67 1015.9
20260504225203 42 0 0.0 0.0 0.00 0.00 0.00 67 1015.9
20260504225004 42 0 0.0 0.0 0.00 0.00 0.00 67 1015.9
20260504224903 66 119 0.0 1.0 0.00 0.00 0.00 49 1010.9
20260504224604 42 0 0.0 0.0 0.00 0.00 0.00 67 1015.9
20260504224404 67 119 0.0 0.0 0.00 0.00 0.00 45 1010.9
20260504224204 42 0 0.0 0.0 0.00 0.00 0.00 67 1015.9
20260504224004 42 0 0.0 0.0 0.00 0.00 0.00 67 1015.9
20260504223903 67 119 0.0 1.0 0.00 0.00 0.00 48 1010.8
20260504223604 42 0 0.0 0.0 0.00 0.00 0.00 67 1015.9
20260504223204 42 0 0.0 0.0 0.00 0.00 0.00 67 1015.9
20260504223004 42 0 0.0 0.0 0.00 0.00 0.00 67 1015.9
20260504222903 67 176 0.0 1.0 0.00 0.00 0.00 46 1010.8
20260504222803 42 0 0.0 0.0 0.00 0.00 0.00 67 1015.9
20260504222605 42 0 0.0 0.0 0.00 0.00 0.00 67 1015.9
20260504222404 42 0 0.0 0.0 0.00 0.00 0.00 67 1015.9
20260504222203 42 0 0.0 0.0 0.00 0.00 0.00 67 1015.9
20260504221903 68 104 0.0 1.0 0.00 0.00 0.00 45 1010.9
20260504221803 42 0 0.0 0.0 0.00 0.00 0.00 67 1015.9
20260504221605 42 0 0.0 0.0 0.00 0.00 0.00 67 1015.9
20260504221403 42 0 0.0 0.0 0.00 0.00 0.00 67 1015.9
20260504221204 42 0 0.0 0.0 0.00 0.00 0.00 67 1015.9
20260504221003 42 0 0.0 0.0 0.00 0.00 0.00 67 1015.9
20260504220904 69 193 1.0 7.0 0.00 0.00 0.00 42 1010.8
20260504220804 42 0 0.0 0.0 0.00 0.00 0.00 67 1015.9
20260504220605 42 0 0.0 0.0 0.00 0.00 0.00 67 1015.9
20260504220404 42 0 0.0 0.0 0.00 0.00 0.00 67 1015.9
20260504220203 42 0 0.0 0.0 0.00 0.00 0.00 67 1015.9
20260504220004 42 0 0.0 0.0 0.00 0.00 0.00 67 1015.9
20260504215803 42 0 0.0 0.0 0.00 0.00 0.00 67 1015.9
20260504215205 42 0 0.0 0.0 0.00 0.00 0.00 67 1015.9
20260504214903 69 109 1.0 6.0 0.00 0.00 0.00 46 1010.9
20260504214205 42 0 0.0 0.0 0.00 0.00 0.00 67 1015.9
20260504214004 42 0 0.0 0.0 0.00 0.00 0.00 67 1015.9
20260504213804 42 0 0.0 0.0 0.00 0.00 0.00 67 1015.9
20260504213604 42 0 0.0 0.0 0.00 0.00 0.00 67 1015.9
20260504213404 42 0 0.0 0.0 0.00 0.00 0.00 67 1015.9
20260504213204 42 0 0.0 0.0 0.00 0.00 0.00 67 1015.9
20260504212905 70 64 0.0 2.0 0.00 0.00 0.00 41 1010.9
20260504212404 70 150 0.0 7.0 0.00 0.00 0.00 44 1010.8
20260504212204 42 0 0.0 0.0 0.00 0.00 0.00 67 1015.9
20260504212003 42 0 0.0 0.0 0.00 0.00 0.00 67 1015.9
20260504211903 70 115 0.0 3.0 0.00 0.00 0.00 42 1010.9
20260504211804 42 0 0.0 0.0 0.00 0.00 0.00 67 1015.9
20260504211603 42 0 0.0 0.0 0.00 0.00 0.00 67 1015.9
20260504211404 42 0 0.0 0.0 0.00 0.00 0.00 67 1015.9
20260504211203 42 0 0.0 0.0 0.00 0.00 0.00 67 1015.9
20260504210904 70 194 0.0 7.0 0.00 0.00 0.00 40 1010.8
20260504210804 42 0 0.0 0.0 0.00 0.00 0.00 67 1015.9
20260504210604 42 0 0.0 0.0 0.00 0.00 0.00 67 1015.9
20260504210204 42 0 0.0 0.0 0.00 0.00 0.00 67 1015.9
20260504210005 42 0 0.0 0.0 0.00 0.00 0.00 67 1015.9
20260504205903 70 82 0.0 3.0 0.00 0.00 0.00 44 1010.9
20260504205804 42 0 0.0 0.0 0.00 0.00 0.00 67 1015.9
20260504205605 42 0 0.0 0.0 0.00 0.00 0.00 67 1015.9
20260504205405 42 0 0.0 0.0 0.00 0.00 0.00 67 1015.9
20260504205004 42 0 0.0 0.0 0.00 0.00 0.00 67 1015.9
20260504204903 71 128 0.0 9.0 0.00 0.00 0.00 41 1011.0
20260504204803 42 0 0.0 0.0 0.00 0.00 0.00 67 1015.9
20260504204604 42 0 0.0 0.0 0.00 0.00 0.00 67 1015.9
20260504204404 71 163 0.0 9.0 0.00 0.00 0.00 39 1011.1
20260504204204 42 0 0.0 0.0 0.00 0.00 0.00 67 1015.9
20260504204004 42 0 0.0 0.0 0.00 0.00 0.00 67 1015.9
20260504203804 42 0 0.0 0.0 0.00 0.00 0.00 67 1015.9
20260504203604 42 0 0.0 0.0 0.00 0.00 0.00 67 1015.9
20260504203403 72 256 0.0 3.0 0.00 0.00 0.00 39 1011.1
20260504203204 42 0 0.0 0.0 0.00 0.00 0.00 67 1015.9
20260504202904 72 122 1.0 6.0 0.00 0.00 0.00 38 1011.1
20260504202605 42 0 0.0 0.0 0.00 0.00 0.00 67 1015.9
20260504202404 73 305 0.0 3.0 0.00 0.00 0.00 37 1011.2
20260504202204 42 0 0.0 0.0 0.00 0.00 0.00 67 1015.9
20260504201903 73 116 0.0 3.0 0.00 0.00 0.00 40 1011.2
20260504201804 42 0 0.0 0.0 0.00 0.00 0.00 67 1015.9
20260504201604 42 0 0.0 0.0 0.00 0.00 0.00 67 1015.9
20260504201404 42 0 0.0 0.0 0.00 0.00 0.00 67 1015.9
20260504201203 42 0 0.0 0.0 0.00 0.00 0.00 67 1015.9
20260504201004 42 0 0.0 0.0 0.00 0.00 0.00 67 1015.9
20260504200903 74 274 0.0 2.0 0.00 0.00 0.00 40 1011.3
20260504200803 42 0 0.0 0.0 0.00 0.00 0.00 67 1015.9
20260504200604 42 0 0.0 0.0 0.00 0.00 0.00 67 1015.9
20260504200404 75 163 0.0 3.0 0.00 0.00 0.00 38 1011.3
20260504200204 42 0 0.0 0.0 0.00 0.00 0.00 67 1015.9
20260504200004 42 0 0.0 0.0 0.00 0.00 0.00 67 1015.9
20260504195903 75 285 0.0 3.0 0.00 0.00 0.00 35 1011.5
20260504195805 42 0 0.0 0.0 0.00 0.00 0.00 67 1015.9
20260504195603 42 0 0.0 0.0 0.00 0.00 0.00 67 1015.9
20260504195404 42 0 0.0 0.0 0.00 0.00 0.00 67 1015.9
20260504195004 42 0 0.0 0.0 0.00 0.00 0.00 67 1015.9
20260504194904 75 126 0.0 1.0 0.00 0.00 0.00 35 1011.6
20260504194805 42 0 0.0 0.0 0.00 0.00 0.00 67 1015.9
20260504194605 42 0 0.0 0.0 0.00 0.00 0.00 67 1015.9
20260504194404 42 0 0.0 0.0 0.00 0.00 0.00 67 1015.9
20260504194004 42 0 0.0 0.0 0.00 0.00 0.00 67 1015.9
20260504193805 42 0 0.0 0.0 0.00 0.00 0.00 67 1015.9
20260504193204 42 0 0.0 0.0 0.00 0.00 0.00 67 1015.9
20260504193004 42 0 0.0 0.0 0.00 0.00 0.00 67 1015.9
20260504192904 75 120 0.0 2.0 0.00 0.00 0.00 38 1011.9
20260504192804 42 0 0.0 0.0 0.00 0.00 0.00 67 1015.9
20260504192605 42 0 0.0 0.0 0.00 0.00 0.00 67 1015.9
20260504192404 42 0 0.0 0.0 0.00 0.00 0.00 67 1015.9
20260504192204 42 0 0.0 0.0 0.00 0.00 0.00 67 1015.9
20260504192004 42 0 0.0 0.0 0.00 0.00 0.00 67 1015.9
20260504191904 74 310 1.0 10.0 0.00 0.00 0.00 33 1012.2
20260504191805 42 0 0.0 0.0 0.00 0.00 0.00 67 1015.9
20260504191404 74 281 0.0 9.0 0.00 0.00 0.00 34 1012.2
20260504191204 42 0 0.0 0.0 0.00 0.00 0.00 67 1015.9
20260504190904 74 238 1.0 12.0 0.00 0.00 0.00 35 1012.2
20260504190803 42 0 0.0 0.0 0.00 0.00 0.00 67 1015.9
20260504190604 42 0 0.0 0.0 0.00 0.00 0.00 67 1015.9
20260504190404 74 246 0.0 10.0 0.00 0.00 0.00 37 1012.4
20260504190205 42 0 0.0 0.0 0.00 0.00 0.00 67 1015.9
20260504190004 42 0 0.0 0.0 0.00 0.00 0.00 67 1015.9
20260504185903 74 271 1.0 10.0 0.00 0.00 0.00 35 1012.5
20260504185804 42 0 0.0 0.0 0.00 0.00 0.00 67 1015.9
20260504185404 42 0 0.0 0.0 0.00 0.00 0.00 67 1015.9
20260504185204 42 0 0.0 0.0 0.00 0.00 0.00 67 1015.9
20260504184604 42 0 0.0 0.0 0.00 0.00 0.00 67 1015.9
20260504184404 74 168 0.0 3.0 0.00 0.00 0.00 36 1012.7
20260504184204 42 0 0.0 0.0 0.00 0.00 0.00 67 1015.9
20260504184004 42 0 0.0 0.0 0.00 0.00 0.00 67 1015.9
20260504183904 75 325 2.0 9.0 0.00 0.00 0.00 32 1012.8
20260504183804 42 0 0.0 0.0 0.00 0.00 0.00 67 1015.9
20260504183404 42 0 0.0 0.0 0.00 0.00 0.00 67 1015.9
20260504182805 42 0 0.0 0.0 0.00 0.00 0.00 67 1015.9
20260504182604 42 0 0.0 0.0 0.00 0.00 0.00 67 1015.9
20260504181903 75 296 1.0 7.0 0.00 0.00 0.00 33 1012.8
20260504181805 42 0 0.0 0.0 0.00 0.00 0.00 67 1015.9
20260504181604 42 0 0.0 0.0 0.00 0.00 0.00 67 1015.9
20260504181404 42 0 0.0 0.0 0.00 0.00 0.00 67 1015.9
20260504181204 42 0 0.0 0.0 0.00 0.00 0.00 67 1015.9
20260504181003 42 0 0.0 0.0 0.00 0.00 0.00 67 1015.9
20260504180903 75 314 2.0 10.0 0.00 0.00 0.00 34 1012.9
20260504180802 42 0 0.0 0.0 0.00 0.00 0.00 67 1015.9
20260504180602 42 0 0.0 0.0 0.00 0.00 0.00 67 1015.9
20260504180202 42 0 0.0 0.0 0.00 0.00 0.00 67 1015.9
20260504180002 42 0 0.0 0.0 0.00 0.00 0.00 67 1015.9
20260504175902 74 66 0.0 3.0 0.00 0.00 0.00 34 1013.1
20260504175802 42 0 0.0 0.0 0.00 0.00 0.00 67 1015.9
20260504175602 42 0 0.0 0.0 0.00 0.00 0.00 67 1015.9
20260504175402 42 0 0.0 0.0 0.00 0.00 0.00 67 1015.9
20260504175201 42 0 0.0 0.0 0.00 0.00 0.00 67 1015.9
20260504175002 42 0 0.0 0.0 0.00 0.00 0.00 67 1015.9
20260504174902 73 210 0.0 6.0 0.00 0.00 0.00 36 1013.2
20260504174802 42 0 0.0 0.0 0.00 0.00 0.00 67 1015.9
20260504174202 42 0 0.0 0.0 0.00 0.00 0.00 67 1015.9
20260504174002 42 0 0.0 0.0 0.00 0.00 0.00 67 1015.9
20260504173902 73 292 0.0 0.0 0.00 0.00 0.00 36 1013.3
20260504173802 42 0 0.0 0.0 0.00 0.00 0.00 67 1015.9
20260504173602 42 0 0.0 0.0 0.00 0.00 0.00 67 1015.9
20260504173403 42 0 0.0 0.0 0.00 0.00 0.00 67 1015.9
20260504173204 42 0 0.0 0.0 0.00 0.00 0.00 67 1015.9
20260504173002 42 0 0.0 0.0 0.00 0.00 0.00 67 1015.9
20260504172902 73 196 0.0 3.0 0.00 0.00 0.00 37 1013.5
20260504172802 42 0 0.0 0.0 0.00 0.00 0.00 67 1015.9
20260504172601 42 0 0.0 0.0 0.00 0.00 0.00 67 1015.9
20260504172002 42 0 0.0 0.0 0.00 0.00 0.00 67 1015.9
20260504171902 73 213 0.0 3.0 0.00 0.00 0.00 40 1013.6
20260504171802 42 0 0.0 0.0 0.00 0.00 0.00 67 1015.9
20260504171402 42 0 0.0 0.0 0.00 0.00 0.00 67 1015.9
20260504171203 42 0 0.0 0.0 0.00 0.00 0.00 67 1015.9
20260504171002 42 0 0.0 0.0 0.00 0.00 0.00 67 1015.9
20260504170902 72 53 0.0 3.0 0.00 0.00 0.00 39 1013.7
20260504170802 42 0 0.0 0.0 0.00 0.00 0.00 67 1015.9
20260504170402 42 0 0.0 0.0 0.00 0.00 0.00 67 1015.9
20260504170202 42 0 0.0 0.0 0.00 0.00 0.00 67 1015.9
20260504160202 42 0 0.0 0.0 0.00 0.00 0.00 67 1015.9
20260504151002 42 0 0.0 0.0 0.00 0.00 0.00 67 1015.9
20260504150902 65 309 1.0 8.0 0.00 0.00 0.00 43 1015.2
20260504150801 42 0 0.0 0.0 0.00 0.00 0.00 67 1015.9
20260504150602 42 0 0.0 0.0 0.00 0.00 0.00 67 1015.9
20260504150402 65 259 0.0 2.0 0.00 0.00 0.00 41 1015.3
20260504150202 42 0 0.0 0.0 0.00 0.00 0.00 67 1015.9
20260504141202 42 0 0.0 0.0 0.00 0.00 0.00 67 1015.9
20260504141002 42 0 0.0 0.0 0.00 0.00 0.00 67 1015.9
20260504140602 42 0 0.0 0.0 0.00 0.00 0.00 67 1015.9
20260504140402 58 165 0.0 2.0 0.00 0.00 0.00 54 1015.4
20260504140202 42 0 0.0 0.0 0.00 0.00 0.00 67 1015.9
20260504130803 42 0 0.0 0.0 0.00 0.00 0.00 67 1015.9
20260504130202 42 0 0.0 0.0 0.00 0.00 0.00 67 1015.9